Regional Weather Roundup
Issued by NWS

Home | Current Version | Previous Version | Text Only | Print | Product List | Glossary On
Versions: 1 2 3 4 5 6 7 8 9 10 11 12 13 14 15 16 17 18 19 20 21 22 23 24 25 26 27 28 29 30 31 32 33 34 35 36 37 38 39 40 41 42 43 44 45 46 47 48 49 50
000
ASUS44 KJAN 030410
RWRMS

MISSISSIPPI HOURLY WEATHER ROUNDUP
NATIONAL WEATHER SERVICE JACKSON MS
1100 PM CDT TUE SEP 02 2014

NOTE: "FAIR: INDICATES FEW OR NO CLOUDS BELOW 12,000 FEET WITH NO
SIGNIFICANT WEATHER AND/OR OBSTRUCTIONS TO VISIBILITY.

MSZ001>002-007>008-010>013-018>021-025>028-034>036-030500-
NORTHWEST MISSISSIPPI

CITY           SKY/WX    TMP DP  RH WIND       PRES   REMARKS
CLARKSDALE     CLOUDY    77  77 100 CALM      30.03S
CLEVELAND      FAIR      74  74 100 CALM      30.02R
GREENWOOD      CLOUDY    74  71  91 N3        30.04R
GREENVILLE     LGT RAIN  75  72  90 CALM      30.01R
GRENADA        CLOUDY    73  70  88 CALM      30.05R
OLIVE BRANCH   CLOUDY    73  73 100 CALM      30.03S
OXFORD         CLOUDY    72  72 100 CALM      30.06S
TUNICA         CLOUDY    73  72  94 CALM      30.03S
$$

MSZ003>006-009-014>017-022>024-029>033-037>039-030500-
NORTHEAST MISSISSIPPI

CITY           SKY/WX    TMP DP  RH WIND       PRES   REMARKS
COLUMBUS AFB   CLOUDY    75  74  98 N2        30.04R
CORINTH        DRIZZLE   75  70  83 S3        30.03S
GOLDN TRIANGLE CLOUDY    75  70  83 N7        30.04R
STARKVILLE     FAIR      73  70  88 CALM      30.02R
TUPELO         CLOUDY    75  72  90 NE5       30.04S
$$

MSZ040-058-030500-
CENTRAL MISSISSIPPI

CITY           SKY/WX    TMP DP  RH WIND       PRES   REMARKS
JACKSON INTL   CLOUDY    73  70  90 CALM      30.00R
JACKSON HAWKNS CLOUDY    73  70  90 S3        30.01R
MERIDIAN KEY   CLOUDY    73  69  87 CALM      30.04R
MERIDIAN NAS   CLOUDY    74  70  87 W3        30.04R
RAYMOND        FAIR      72  66  83 CALM      30.00F
VICKSBURG      CLOUDY    73  71  93 S6        29.99F
$$

MSZ059>079-030500-
SOUTH MISSISSIPPI

CITY           SKY/WX    TMP DP  RH WIND       PRES   REMARKS
BROOKHAVEN     FAIR      72  72 100 S5        30.02F
COLUMBIA       LGT RAIN  72  72 100 SE3       29.99F
HATTIESBURG    CLOUDY    74  72  93 S8        30.01F
MCCOMB         CLOUDY    73  71  93 S3        29.99F
NATCHEZ        CLOUDY    73  70  88 CALM      30.03R
PINE BELT      CLOUDY    72  68  88 SW5       30.00F
$$

MSZ080>082-030500-
COASTAL MISSISSIPPI

CITY           SKY/WX    TMP DP  RH WIND       PRES   REMARKS
BILOXI         LGT RAIN  79  72  78 VRB7      30.06R
PASCAGOULA     MOCLDY    77  75  93 NW10G17   30.06R
GULFPORT       RAIN      73  72  96 NW9       30.07R FOG
$$



USA.gov is the U.S. government's official web portal to all federal, state and local government web resources and services.